{"data":{"norad_id":40617,"intl_designator":"2015-023A","name":"TURKMENALEM52E/MONACOSAT","alt_names":[],"object_type":"PAYLOAD","status":"ACTIVE","operator":null,"country":"TMMC","launch_date":"2015-04-27","launch_site_code":"AFETR","launch_vehicle":null,"mission":null,"orbit_class":"UNKNOWN","rcs_meters":8.9433,"size_class":null,"mass_kg":null,"dimensions":null,"purposes":["comms"],"wikipedia_slug":null,"has_3d_model":false,"image_url":null,"decayed_at":null,"tle_current":{"epoch":"2026-05-25T03:59:23.345952Z","epoch_age_seconds":56870,"freshness":"FRESH","line1":"1 40617U 15023A   26145.16624243  .00000101  00000+0  00000+0 0  9995","line2":"2 40617   0.0502  90.5516 0003032 330.9080 293.1617  1.00273544 40610","mean_motion":1.00273544,"eccentricity":0.0003032,"inclination_deg":0.0502,"raan_deg":90.5516,"arg_perigee_deg":330.908,"mean_anomaly_deg":293.1617,"bstar":0,"rev_number":4061,"period_min":1436.0717119961,"perigee_km":35773.317659624,"apogee_km":35798.886054067,"semimajor_km":42164.238856846,"source":"CELESTRAK","updated_at":"2026-05-25T13:38:13.988310Z"}}}